Stündliche Wetter Barra de São Francisco

Heute, 20 Oktober, Dienstag

Zeit Temperatur Niederschläge Wind Luftdruck Luftfeuchtigkeit
00:00 +22°C° 0 mm 1 m/S 740 mmHg 91%
01:00 +22°C° 0.1 mm 1 m/S 740 mmHg 92%
02:00 +20°C° 0.1 mm 0 m/S 739 mmHg 93%
03:00 +20°C° 0 mm 0 m/S 739 mmHg 92%
04:00 +22°C° 0.1 mm 1 m/S 739 mmHg 92%
05:00 +22°C° 0.1 mm 1 m/S 739 mmHg 92%
06:00 +22°C° 0.1 mm 1 m/S 740 mmHg 91%
07:00 +23°C° 0.1 mm 1 m/S 740 mmHg 88%
08:00 +23°C° 0.1 mm 1 m/S 740 mmHg 86%
09:00 +24°C° 0.1 mm 1 m/S 741 mmHg 83%
10:00 +24°C° 0 mm 1 m/S 740 mmHg 80%
11:00 +25°C° 0 mm 1 m/S 740 mmHg 77%
12:00 +25°C° 0 mm 1 m/S 740 mmHg 75%
13:00 +25°C° 0.1 mm 1 m/S 739 mmHg 75%
14:00 +25°C° 0.1 mm 1 m/S 739 mmHg 74%
15:00 +25°C° 0.1 mm 1 m/S 738 mmHg 74%
16:00 +24°C° 0.1 mm 1 m/S 739 mmHg 78%
17:00 +24°C° 0.1 mm 1 m/S 739 mmHg 82%
18:00 +23°C° 0.1 mm 1 m/S 739 mmHg 86%
19:00 +23°C° 0.9 mm 1 m/S 739 mmHg 89%
20:00 +22°C° 0.9 mm 1 m/S 740 mmHg 92%
21:00 +20°C° 0.9 mm 0 m/S 741 mmHg 95%
22:00 +20°C° 1.1 mm 0 m/S 740 mmHg 96%
23:00 +20°C° 1.1 mm 0 m/S 740 mmHg 96%

Morgen, 21 Oktober, Mittwoch

Zeit Temperatur Niederschläge Wind Luftdruck Luftfeuchtigkeit
00:00 +20°C° 1.1 mm 0 m/S 740 mmHg 97%
01:00 +20°C° 0.2 mm 0 m/S 739 mmHg 96%
02:00 +20°C° 0.2 mm 0 m/S 739 mmHg 96%
03:00 +20°C° 0.2 mm 0 m/S 738 mmHg 96%
04:00 +20°C° 0.2 mm 0 m/S 739 mmHg 95%
05:00 +20°C° 0.2 mm 0 m/S 739 mmHg 94%
06:00 +20°C° 0.2 mm 0 m/S 739 mmHg 93%
07:00 +21°C° 0 mm 0 m/S 740 mmHg 88%
08:00 +22°C° 0 mm 0 m/S 740 mmHg 83%
09:00 +22°C° 0 mm 0 m/S 741 mmHg 78%
10:00 +23°C° 0.1 mm 0 m/S 740 mmHg 77%
11:00 +25°C° 0.1 mm 1 m/S 740 mmHg 75%
12:00 +26°C° 0.1 mm 1 m/S 740 mmHg 73%
13:00 +25°C° 0 mm 1 m/S 739 mmHg 75%
14:00 +23°C° 0 mm 0 m/S 738 mmHg 76%
15:00 +23°C° 0 mm 0 m/S 738 mmHg 78%
16:00 +22°C° 0 mm 0 m/S 738 mmHg 80%
17:00 +22°C° 0 mm 0 m/S 738 mmHg 82%
18:00 +24°C° 0 mm 1 m/S 738 mmHg 84%
19:00 +21°C° 0 mm 0 m/S 738 mmHg 85%
20:00 +21°C° 0 mm 0 m/S 739 mmHg 87%
21:00 +21°C° 0 mm 0 m/S 739 mmHg 88%
22:00 +21°C° 0.1 mm 0 m/S 739 mmHg 89%
23:00 +23°C° 0.1 mm 1 m/S 739 mmHg 90%

übermorgen, 22 Oktober, Donnerstag

Zeit Temperatur Niederschläge Wind Luftdruck Luftfeuchtigkeit
00:00 +23°C° 0.1 mm 1 m/S 739 mmHg 90%
01:00 +23°C° 0.2 mm 1 m/S 739 mmHg 91%
02:00 +21°C° 0.2 mm 0 m/S 738 mmHg 92%
03:00 +21°C° 0.2 mm 0 m/S 738 mmHg 93%
04:00 +21°C° 0.2 mm 0 m/S 738 mmHg 93%
05:00 +21°C° 0.2 mm 0 m/S 739 mmHg 93%
06:00 +21°C° 0.2 mm 0 m/S 739 mmHg 92%
07:00 +22°C° 0.1 mm 0 m/S 739 mmHg 87%
08:00 +25°C° 0.1 mm 1 m/S 740 mmHg 82%
09:00 +26°C° 0.1 mm 1 m/S 740 mmHg 76%
10:00 +26°C° 0.5 mm 2 m/S 740 mmHg 77%
11:00 +26°C° 0.5 mm 2 m/S 739 mmHg 77%
12:00 +26°C° 0.5 mm 3 m/S 739 mmHg 77%
13:00 +26°C° 0.1 mm 3 m/S 739 mmHg 78%
14:00 +25°C° 0.1 mm 2 m/S 738 mmHg 79%
15:00 +25°C° 0.1 mm 2 m/S 737 mmHg 80%
16:00 +25°C° 0.2 mm 2 m/S 738 mmHg 83%
17:00 +24°C° 0.2 mm 2 m/S 738 mmHg 86%
18:00 +24°C° 0.2 mm 3 m/S 739 mmHg 90%
19:00 +23°C° 0.1 mm 2 m/S 739 mmHg 91%
20:00 +23°C° 0.1 mm 2 m/S 740 mmHg 92%
21:00 +21°C° 0.1 mm 2 m/S 740 mmHg 94%
22:00 +21°C° 0.2 mm 3 m/S 740 mmHg 93%
23:00 +21°C° 0.2 mm 3 m/S 740 mmHg 92%

23 Oktober, Freitag

Zeit Temperatur Niederschläge Wind Luftdruck Luftfeuchtigkeit
00:00 +21°C° 0.2 mm 4 m/S 740 mmHg 91%
01:00 +20°C° 0.1 mm 3 m/S 740 mmHg 90%
02:00 +20°C° 0.1 mm 3 m/S 739 mmHg 89%
03:00 +19°C° 0.1 mm 2 m/S 739 mmHg 88%
04:00 +20°C° 0 mm 2 m/S 739 mmHg 88%
05:00 +20°C° 0 mm 2 m/S 740 mmHg 88%
06:00 +20°C° 0 mm 2 m/S 740 mmHg 89%
07:00 +21°C° 0 mm 2 m/S 741 mmHg 83%
08:00 +24°C° 0 mm 3 m/S 741 mmHg 77%
09:00 +25°C° 0 mm 4 m/S 741 mmHg 72%
10:00 +26°C° 0.1 mm 3 m/S 741 mmHg 69%
11:00 +27°C° 0.1 mm 3 m/S 740 mmHg 66%
12:00 +27°C° 0.1 mm 3 m/S 740 mmHg 64%
13:00 +27°C° 0.2 mm 3 m/S 740 mmHg 66%
14:00 +26°C° 0.2 mm 4 m/S 739 mmHg 69%
15:00 +26°C° 0.2 mm 4 m/S 739 mmHg 72%
16:00 +25°C° 0.1 mm 4 m/S 739 mmHg 75%
17:00 +24°C° 0.1 mm 3 m/S 739 mmHg 79%
18:00 +22°C° 0.1 mm 3 m/S 739 mmHg 83%
19:00 +22°C° 0 mm 3 m/S 739 mmHg 84%
20:00 +22°C° 0 mm 3 m/S 740 mmHg 86%
21:00 +21°C° 0 mm 3 m/S 740 mmHg 87%
22:00 +21°C° 0.1 mm 2 m/S 740 mmHg 89%
23:00 +21°C° 0.1 mm 2 m/S 739 mmHg 90%

24 Oktober, Samstag

Zeit Temperatur Niederschläge Wind Luftdruck Luftfeuchtigkeit
00:00 +21°C° 0.1 mm 2 m/S 739 mmHg 91%
01:00 +21°C° 0.3 mm 2 m/S 739 mmHg 92%
02:00 +21°C° 0.3 mm 2 m/S 738 mmHg 92%
03:00 +21°C° 0.3 mm 2 m/S 738 mmHg 93%
04:00 +21°C° 0.1 mm 2 m/S 739 mmHg 93%
05:00 +22°C° 0.1 mm 1 m/S 739 mmHg 92%
06:00 +22°C° 0.1 mm 1 m/S 739 mmHg 92%
07:00 +23°C° 0.1 mm 2 m/S 739 mmHg 86%
08:00 +24°C° 0.1 mm 2 m/S 740 mmHg 81%
09:00 +26°C° 0.1 mm 2 m/S 740 mmHg 75%
10:00 +26°C° 0.3 mm 2 m/S 739 mmHg 73%
11:00 +27°C° 0.3 mm 2 m/S 739 mmHg 71%
12:00 +27°C° 0.3 mm 2 m/S 739 mmHg 69%
13:00 +27°C° 1.1 mm 3 m/S 738 mmHg 71%
14:00 +27°C° 1.1 mm 3 m/S 737 mmHg 73%
15:00 +27°C° 1.1 mm 3 m/S 736 mmHg 74%
16:00 +26°C° 1.4 mm 3 m/S 736 mmHg 80%
17:00 +25°C° 1.4 mm 3 m/S 737 mmHg 85%
18:00 +24°C° 1.4 mm 3 m/S 737 mmHg 91%
19:00 +22°C° 2.6 mm 4 m/S 737 mmHg 92%
20:00 +22°C° 2.6 mm 4 m/S 737 mmHg 93%
21:00 +22°C° 2.6 mm 5 m/S 738 mmHg 95%
22:00 +21°C° 1.9 mm 4 m/S 737 mmHg 95%
23:00 +21°C° 1.9 mm 3 m/S 737 mmHg 95%

25 Oktober, Sonntag

Zeit Temperatur Niederschläge Wind Luftdruck Luftfeuchtigkeit
00:00 +21°C° 1.9 mm 2 m/S 737 mmHg 96%
01:00 +21°C° 2.2 mm 3 m/S 736 mmHg 96%
02:00 +21°C° 2.2 mm 3 m/S 736 mmHg 96%
03:00 +21°C° 2.2 mm 3 m/S 736 mmHg 96%
04:00 +21°C° 1.7 mm 3 m/S 736 mmHg 96%
05:00 +21°C° 1.7 mm 3 m/S 736 mmHg 97%
06:00 +21°C° 1.7 mm 3 m/S 736 mmHg 97%
07:00 +21°C° 2.8 mm 3 m/S 737 mmHg 97%
08:00 +21°C° 2.8 mm 2 m/S 737 mmHg 97%
09:00 +21°C° 2.8 mm 2 m/S 737 mmHg 97%
10:00 +21°C° 2.7 mm 2 m/S 737 mmHg 97%
11:00 +21°C° 2.7 mm 2 m/S 737 mmHg 97%
12:00 +21°C° 2.7 mm 2 m/S 736 mmHg 97%
13:00 +21°C° 2.1 mm 2 m/S 736 mmHg 97%
14:00 +22°C° 2.1 mm 1 m/S 735 mmHg 97%
15:00 +22°C° 2.1 mm 1 m/S 735 mmHg 98%
16:00 +22°C° 3.9 mm 1 m/S 735 mmHg 98%
17:00 +22°C° 3.9 mm 1 m/S 735 mmHg 98%
18:00 +22°C° 3.9 mm 1 m/S 735 mmHg 98%
19:00 +22°C° 3.1 mm 1 m/S 736 mmHg 98%
20:00 +22°C° 3.1 mm 1 m/S 736 mmHg 98%
21:00 +20°C° 3.1 mm 0 m/S 736 mmHg 98%
22:00 +20°C° 0.8 mm 0 m/S 736 mmHg 98%
23:00 +20°C° 0.8 mm 0 m/S 735 mmHg 98%

26 Oktober, Montag

Zeit Temperatur Niederschläge Wind Luftdruck Luftfeuchtigkeit
00:00 +20°C° 0.8 mm 0 m/S 735 mmHg 98%
01:00 +20°C° 0.4 mm 0 m/S 735 mmHg 98%
02:00 +20°C° 0.4 mm 0 m/S 734 mmHg 98%
03:00 +20°C° 0.4 mm 0 m/S 734 mmHg 98%
04:00 +20°C° 0.1 mm 0 m/S 734 mmHg 98%
05:00 +20°C° 0.1 mm 0 m/S 734 mmHg 98%
06:00 +20°C° 0.1 mm 0 m/S 735 mmHg 98%
07:00 +21°C° 0.1 mm 0 m/S 735 mmHg 97%
08:00 +21°C° 0.1 mm 0 m/S 735 mmHg 95%
09:00 +23°C° 0.1 mm 1 m/S 735 mmHg 94%
10:00 +25°C° 0.5 mm 1 m/S 735 mmHg 89%
11:00 +26°C° 0.5 mm 1 m/S 735 mmHg 84%
12:00 +28°C° 0.5 mm 1 m/S 735 mmHg 79%
13:00 +28°C° 1.3 mm 1 m/S 734 mmHg 79%
14:00 +28°C° 1.3 mm 2 m/S 733 mmHg 79%
15:00 +28°C° 1.3 mm 2 m/S 732 mmHg 79%
16:00 +26°C° 0.5 mm 1 m/S 733 mmHg 84%
17:00 +25°C° 0.5 mm 1 m/S 733 mmHg 88%
18:00 +24°C° 0.5 mm 1 m/S 733 mmHg 92%
19:00 +24°C° 0.3 mm 1 m/S 733 mmHg 94%
20:00 +23°C° 0.3 mm 1 m/S 734 mmHg 95%
21:00 +23°C° 0.3 mm 1 m/S 734 mmHg 97%
22:00 +23°C° 0.7 mm 1 m/S 734 mmHg 97%
23:00 +23°C° 0.7 mm 1 m/S 734 mmHg 97%
Mehr zeigen